Temp_Advection
nan nan nan nan nan nan nan nan nan nan nan nan nan nan nan nan nan nan nan nan nan nan nan nan nan nan nan nan nan nan nan nan nan nan nan nan nan nan nan nan nan nan nan nan
nan 1 0 0 0 2 1 0 0 0 0 0 0 -0 0 0 0 -0 0 0 0 0 0 -0 0 0 -0 0 -0 0 -0 0 -0 0 -0 0 -0 0 -0 -1 0 1 -0 nan
nan 0 0 1 1 1 2 0 0 0 1 0 -0 -0 0 0 0 0 0 0 0 0 -0 0 0 0 -0 0 0 0 -0 0 -0 -1 0 1 0 0 0 1 -0 -0 -0 nan
nan 1 1 1 1 2 3 0 0 1 0 -0 0 1 0 0 0 0 0 0 0 0 0 0 0 0 0 0 0 -0 0 0 -1 -0 -0 0 1 1 1 1 1 -0 -1 nan
nan 1 6 4 2 3 2 1 -0 0 0 0 0 0 0 0 0 0 0 -0 0 0 0 0 -0 0 0 0 0 0 1 1 0 -0 -1 0 0 0 0 0 0 1 1 nan
nan 4 6 2 2 2 0 1 0 -0 -0 0 0 0 0 0 0 0 -0 -0 0 1 0 -0 0 0 0 0 0 0 0 0 0 -1 -1 0 0 -0 0 -0 0 -0 -1 nan
nan 6 3 2 2 1 0 0 -0 0 -0 -0 0 0 0 0 0 -0 0 0 0 -0 -0 -0 -0 -0 -0 -0 -0 1 1 0 0 -0 0 -0 0 -1 -0 -0 -0 -0 -0 nan
nan 6 3 2 1 0 1 1 0 0 0 0 -0 0 0 -0 0 0 0 -0 -0 -0 -0 -0 -0 0 0 0 -0 -0 0 1 0 -0 -1 1 1 -0 -0 -0 0 -0 -0 nan
nan 4 2 1 0 0 0 1 0 -0 -0 -1 -0 0 0 0 0 -0 -0 -0 0 0 -0 0 0 -0 -0 0 0 0 0 0 -0 0 0 1 -1 -0 -0 -0 0 -0 -0 nan
nan 1 1 0 0 0 1 0 0 -1 -2 -1 0 0 -0 -0 0 -0 -0 -0 -0 -0 -0 0 -0 0 -0 0 0 0 0 0 0 -0 0 1 -1 -0 -0 -0 -0 -0 -0 nan
nan 0 0 0 0 0 0 0 0 -1 -2 -1 0 0 0 -0 -0 -0 -0 -0 0 -0 0 -0 0 0 -0 0 -0 -0 -0 -0 -0 0 0 2 -0 0 0 -0 -1 -0 -0 nan
nan -0 -0 -0 -0 -0 -0 -0 0 -0 -3 -2 1 0 0 -0 -0 -0 0 -0 -0 -0 -0 -0 -0 0 0 -0 1 -0 0 -0 -0 -0 -0 -0 -0 -0 -0 -0 -0 -0 -0 nan
nan 0 0 -0 -0 -0 -0 -0 0 -2 -4 -0 -0 -0 1 0 0 0 -0 -0 -0 -0 -0 -0 -0 0 -0 -0 0 -0 0 0 -0 -0 0 0 0 0 0 -0 -0 -0 -0 nan
nan -0 0 0 -0 -0 0 -0 -0 -1 -1 -1 -1 0 -0 -0 -0 -0 -0 0 -0 -0 -0 -0 -0 -0 -0 -0 -0 0 -0 0 -0 -0 0 0 -0 0 0 -0 -1 -1 -0 nan
nan 0 0 0 0 0 0 -0 -0 -0 -0 -1 -1 -0 -0 0 -0 -0 -0 -0 0 -0 -0 -0 -0 -0 -0 -0 -0 0 0 -0 -0 0 0 -0 -0 -0 0 -0 -0 -0 -0 nan
nan -0 -0 -0 0 0 -0 -1 -0 -0 -1 -1 -0 -0 0 0 -0 -0 -0 -0 -0 -0 -0 -0 -0 -0 -0 -0 0 -0 0 0 -0 -0 0 0 -0 -0 0 -0 0 0 -0 nan
nan -0 -1 -0 0 0 -1 -0 1 0 -0 -0 -0 -0 0 -0 -0 0 -0 -0 -0 -0 -0 -0 0 0 -0 -0 0 0 0 0 0 0 1 -0 -0 0 0 -0 -0 0 -0 nan
nan -0 0 0 -0 -1 -1 0 0 0 -1 -1 -0 -0 -0 -1 -0 -0 -0 0 -0 -0 0 0 -0 0 0 -0 0 1 1 0 0 -0 0 0 0 -0 -0 0 0 0 -1 nan
nan -1 -0 0 -2 -2 0 1 0 -0 -2 -1 -0 -0 -0 -0 -0 -0 0 -0 -0 0 -0 -0 -0 -0 -0 0 1 0 1 1 0 0 -0 0 0 0 0 0 -0 -0 -0 nan
nan 0 -1 -1 -0 0 0 -0 -1 -1 -2 -1 -0 -0 -0 -0 -0 -0 -0 -0 -0 0 -0 -0 -0 -0 0 0 0 0 0 1 1 1 -1 -1 -0 0 0 1 0 0 -0 nan
nan -1 -1 0 0 -0 -1 -1 -1 -1 -0 -0 -0 -0 -0 -0 -0 -0 -0 -0 -0 -0 -0 -0 -0 0 -0 0 0 0 0 1 1 1 0 -0 0 0 -0 -0 -0 0 -0 nan
nan -1 -1 -0 -1 -1 -1 -0 -0 -0 -0 -0 -0 0 -0 -0 -0 -0 0 -0 -0 0 0 -0 -0 -0 1 1 1 1 0 0 0 0 0 0 0 0 0 0 0 0 -0 nan
nan -1 -1 -1 -1 -0 -0 -0 -0 -0 -0 -0 -0 0 -0 -0 0 -0 -0 -0 -0 0 -0 -0 -0 0 1 1 1 1 1 0 0 0 0 0 0 0 0 0 0 0 0 nan
nan -2 -1 -0 -0 -0 -0 -0 -0 -0 -0 -0 -0 -0 0 -0 0 -0 -0 -0 -0 -0 -0 -0 -0 1 1 1 1 1 1 1 0 0 0 0 0 0 0 0 0 1 -0 nan
nan -1 -0 -0 -0 -0 -0 -0 -0 -0 -0 -0 -0 0 0 0 -0 0 -0 -0 0 -0 -0 0 0 1 1 1 1 0 0 1 1 1 1 0 1 0 0 0 1 1 1 nan
nan -0 -0 0 0 -0 -0 0 0 -0 0 0 -0 -0 0 -0 0 -0 0 -0 -0 -0 0 1 1 1 0 0 1 1 1 1 0 0 1 1 1 1 1 1 1 0 1 nan
nan nan nan nan nan nan nan nan nan nan nan nan nan nan nan nan nan nan nan nan nan nan nan nan nan nan nan nan nan nan nan nan nan nan nan nan nan nan nan nan nan nan nan nan
Wind_Speed
36 39 33 34 31 25 21 8 3 4 9 5 4 5 2 2 4 3 3 3 4 7 4 5 6 7 3 8 11 5 2 2 8 16 4 3 2 10 15 11 12 13 15 24
36 36 34 37 34 30 18 7 6 9 12 6 8 1 2 2 4 4 3 3 5 2 4 5 9 4 1 10 10 7 6 4 6 6 3 1 4 7 7 14 14 24 17 17
38 35 41 35 32 33 25 9 3 4 12 9 3 5 5 5 3 3 3 1 3 3 6 9 4 6 4 9 10 5 7 8 11 16 16 13 13 14 12 14 14 18 22 25
42 37 43 47 40 32 28 13 6 8 4 10 12 9 4 6 4 3 6 5 10 7 6 9 14 11 8 8 8 9 7 14 17 23 23 22 23 22 18 21 20 20 25 24
40 39 46 38 36 33 28 12 8 8 3 3 9 8 7 8 5 3 5 9 5 11 6 6 3 5 8 11 9 13 14 16 18 26 20 22 26 21 22 21 23 26 26 25
36 52 48 40 38 36 14 14 14 11 10 6 6 6 4 3 6 6 7 6 8 8 7 6 6 8 12 15 11 13 15 12 11 25 19 22 20 12 11 5 4 3 8 7
42 52 44 41 38 40 31 19 17 7 4 7 6 5 5 5 7 3 4 3 3 2 2 6 9 11 17 19 21 21 14 13 11 16 17 23 5 7 3 5 2 3 6 6
44 49 44 38 33 27 28 20 12 6 4 7 7 8 6 8 4 3 2 4 2 2 2 4 6 6 7 7 3 7 11 11 9 13 15 14 5 5 4 4 1 2 5 7
48 47 39 29 22 22 19 19 14 8 9 6 3 4 2 3 5 5 5 3 1 0 4 3 5 4 4 2 3 1 1 4 7 13 17 20 5 4 1 1 5 4 5 9
38 29 23 18 16 14 16 17 12 10 10 9 7 4 3 3 1 2 4 1 1 1 4 7 9 10 2 5 6 2 4 5 11 12 15 6 4 4 0 4 3 9 9 10
32 24 22 19 18 17 12 17 12 7 11 17 11 9 10 4 4 1 3 2 3 4 3 3 4 3 1 2 1 2 3 5 10 4 6 12 7 3 4 6 10 11 12 13
25 27 23 17 13 12 11 17 11 10 16 17 20 22 17 12 6 3 3 3 3 5 3 1 3 4 2 3 10 2 4 2 3 3 3 1 3 3 5 7 12 14 16 16
22 26 25 18 13 11 9 20 18 19 25 20 9 11 19 14 12 6 3 2 2 2 3 4 2 5 2 6 2 1 4 1 3 5 3 6 7 9 7 11 15 17 18 20
26 27 23 14 13 13 10 19 16 14 13 7 10 9 14 16 14 10 4 1 2 1 2 1 2 2 3 2 3 3 4 1 3 7 12 12 8 6 9 16 18 20 20 21
26 27 19 17 14 15 17 19 16 10 5 7 9 8 14 12 14 13 9 5 4 3 2 3 2 2 3 1 2 4 1 2 3 3 8 11 20 20 18 26 25 21 24 28
24 20 21 20 20 20 21 12 17 21 25 9 3 5 11 7 10 12 14 9 8 6 4 3 3 2 3 3 3 3 5 8 11 10 17 27 33 33 30 28 28 34 34 32
21 18 19 18 17 14 9 6 9 10 9 7 7 4 5 6 10 8 8 10 7 5 3 2 1 1 3 2 3 1 9 14 19 22 24 25 19 20 27 37 36 34 33 33
20 18 16 14 15 31 27 20 12 11 14 9 4 3 3 15 8 5 8 4 3 6 3 1 2 2 2 3 8 14 17 19 22 24 20 28 35 37 38 33 31 33 33 33
22 25 27 29 29 20 21 25 26 16 12 7 7 4 3 11 9 5 3 4 2 2 2 3 5 1 3 5 14 17 17 15 23 27 31 34 37 36 33 30 29 29 32 34
27 19 9 8 10 14 9 7 6 11 13 10 6 8 3 8 8 6 5 4 2 2 3 7 2 3 11 12 13 17 22 26 29 32 33 29 30 31 33 34 33 31 33 34
5 6 8 14 8 6 7 7 9 9 6 7 6 7 6 8 4 4 6 3 3 2 3 4 2 3 7 9 16 23 28 32 33 31 33 33 33 35 34 35 34 33 33 34
13 19 17 8 8 8 8 4 5 7 3 6 6 8 5 5 4 3 4 3 2 2 6 2 3 3 11 16 27 31 28 27 28 27 31 31 32 33 35 36 36 35 35 35
9 7 7 8 8 11 7 6 4 3 7 8 11 6 6 5 4 2 3 2 1 6 2 3 4 9 16 26 31 31 28 27 28 30 30 31 33 34 34 37 37 37 37 37
8 8 8 6 6 6 5 3 3 4 6 10 10 4 4 4 4 3 3 2 2 2 2 4 6 20 32 34 33 32 35 33 33 35 36 34 34 36 36 34 36 35 36 36
9 9 7 7 5 5 3 3 4 4 6 7 4 3 2 2 2 2 3 3 3 3 4 8 25 36 37 37 38 37 36 37 37 37 37 38 38 38 39 37 36 36 36 36
10 12 7 4 3 6 6 6 5 5 5 3 2 3 2 3 2 3 2 4 3 4 11 33 38 39 40 40 39 39 39 38 38 38 37 38 37 36 38 38 36 34 33 33
8 8 9 7 5 4 5 5 6 6 3 3 2 3 4 3 3 3 3 3 6 30 38 38 38 40 42 42 42 40 38 39 39 38 37 36 36 34 34 35 33 32 32 32
Wind_Direction
267 269 261 262 259 255 251 212 181 227 187 181 193 222 190 231 183 177 226 270 260 238 205 231 232 235 232 168 158 175 107 284 253 260 79 22 314 250 239 232 252 241 250 261
265 273 265 268 263 259 220 203 206 183 183 232 219 152 199 242 205 206 185 226 240 252 223 249 229 207 82 178 182 178 167 209 291 247 133 81 255 233 253 265 272 261 264 264
267 273 269 267 265 263 233 189 154 211 203 222 256 239 244 211 203 198 185 174 162 176 231 232 263 228 172 193 211 150 173 230 235 259 290 322 274 255 237 242 257 265 255 280
265 264 267 260 254 253 224 194 215 174 186 221 204 186 160 181 196 206 204 202 216 195 237 237 238 241 221 202 224 230 230 255 261 266 275 277 276 272 264 253 251 254 276 274
259 261 247 224 232 220 202 188 161 168 86 120 167 179 203 196 153 169 246 235 212 212 232 224 300 253 233 245 234 229 248 269 275 274 278 280 277 274 265 268 267 261 265 267
261 244 222 209 215 217 197 197 170 152 152 163 203 210 199 179 159 226 261 261 222 221 247 293 280 273 265 266 266 265 271 274 268 273 291 293 276 276 283 299 287 337 291 342
246 224 204 204 208 208 211 192 172 134 164 174 194 142 162 175 205 256 180 220 197 64 355 315 275 263 260 261 261 257 261 261 276 280 285 267 317 54 34 310 326 330 297 334
238 206 198 194 204 211 214 186 164 131 115 137 101 135 130 125 133 125 220 54 45 306 323 288 279 246 229 245 310 280 267 255 267 260 262 268 228 31 21 21 317 37 322 322
181 184 185 190 194 190 184 174 184 127 119 34 359 98 100 168 202 146 118 62 98 61 274 247 250 267 19 266 223 142 126 254 261 282 285 283 53 29 356 229 252 38 350 331
163 156 153 161 168 167 179 150 154 126 97 23 30 59 58 64 106 65 110 7 243 254 249 252 261 266 5 251 257 216 255 251 263 274 279 291 30 328 237 241 15 334 332 320
132 131 134 139 142 140 150 135 141 128 97 48 67 81 62 43 21 353 58 232 171 231 249 267 275 263 346 265 88 325 286 293 282 278 269 268 15 195 249 347 319 317 313 311
131 134 143 132 110 113 125 130 129 141 97 107 81 73 71 71 59 36 28 45 37 17 281 275 298 264 206 349 283 132 248 308 309 265 335 84 335 290 291 313 308 309 305 305
132 133 151 139 90 106 141 137 130 125 99 82 72 43 60 69 54 57 345 78 57 54 41 348 335 276 332 273 300 26 177 158 254 333 105 277 277 279 276 309 301 301 296 296
122 127 133 119 127 125 143 140 127 116 110 102 54 65 54 45 40 38 44 161 14 8 353 342 339 313 10 349 350 284 23 200 325 268 269 301 263 256 309 309 306 299 294 293
143 147 130 121 117 124 138 122 109 104 109 115 121 68 41 40 34 38 43 79 95 59 68 38 56 37 312 22 293 240 172 321 259 292 325 298 286 294 294 300 302 293 295 296
131 119 112 118 125 132 121 72 82 93 104 97 92 78 34 38 43 39 42 45 54 74 70 72 73 54 289 271 266 135 246 264 267 269 284 288 288 291 290 291 293 298 300 297
114 112 117 124 136 146 77 82 112 93 84 86 105 102 18 34 29 28 29 31 52 68 82 70 37 272 306 266 272 193 283 285 286 286 291 285 287 283 290 291 295 296 292 291
105 110 120 125 114 107 87 77 87 91 79 79 75 74 63 19 8 14 10 20 44 38 84 101 338 252 288 263 259 288 298 298 291 293 283 281 291 295 298 298 295 293 292 296
106 106 109 112 92 78 82 76 69 74 77 88 60 14 14 353 9 2 352 345 57 28 40 24 310 225 230 253 279 291 300 288 298 306 296 291 288 293 296 297 292 285 285 288
115 108 81 62 74 88 68 54 45 38 40 51 58 357 6 350 345 19 348 17 25 349 35 314 268 267 251 261 288 296 303 299 303 288 293 293 287 287 288 289 290 285 284 287
107 58 72 109 91 57 50 52 41 18 56 32 17 19 344 6 5 357 21 343 350 315 36 325 274 261 234 271 305 312 307 303 296 288 287 288 287 287 287 287 287 286 285 283
107 115 99 62 45 50 67 41 31 37 50 7 357 345 353 342 353 331 1 333 312 312 335 284 256 252 254 300 316 314 309 300 295 292 289 287 285 284 284 283 283 283 283 283
89 65 66 24 16 49 41 22 33 47 1 3 345 335 345 343 0 327 328 301 336 312 243 257 255 301 306 316 313 310 310 306 301 298 295 292 289 287 285 285 284 285 284 282
59 50 39 39 33 51 32 19 6 338 333 337 336 328 353 341 335 340 304 28 287 282 268 247 306 325 316 314 314 313 312 311 306 304 304 300 297 296 297 293 296 293 287 288
66 51 48 53 58 48 16 353 354 344 323 333 336 305 332 345 304 359 292 297 293 241 267 309 314 314 313 314 315 313 311 310 309 311 307 307 307 303 302 304 302 298 295 294
60 52 74 75 69 44 27 14 8 348 337 336 329 308 309 44 329 304 342 302 262 284 306 306 309 309 310 311 311 311 311 311 311 313 312 310 307 303 302 304 302 303 301 299
59 50 54 70 63 36 8 4 355 354 351 1 337 16 358 285 281 282 198 247 284 302 302 304 304 304 306 309 312 317 317 318 318 317 317 316 318 318 314 309 319 313 307 304
Height
1518 1519 1521 1521 1523 1525 1526 1530 1531 1529 1531 1535 1533 1527 1528 1531 1529 1529 1530 1531 1528 1526 1529 1531 1531 1529 1529 1538 1541 1543 1548 1547 1540 1533 1548 1550 1548 1541 1540 1542 1536 1523 1526 1496
1510 1512 1513 1515 1517 1519 1522 1522 1525 1524 1527 1526 1523 1527 1526 1528 1530 1528 1529 1530 1531 1532 1532 1534 1528 1533 1537 1539 1539 1541 1547 1545 1542 1521 1549 1551 1550 1544 1547 1539 1536 1523 1528 1496
1502 1504 1504 1506 1509 1513 1517 1521 1519 1524 1524 1522 1521 1520 1524 1524 1526 1527 1528 1529 1532 1534 1534 1532 1529 1532 1537 1539 1539 1542 1544 1541 1540 1523 1519 1534 1537 1537 1538 1542 1533 1521 1507 1506
1492 1496 1496 1497 1498 1502 1509 1510 1510 1507 1518 1515 1515 1518 1518 1520 1525 1526 1527 1527 1528 1529 1528 1529 1527 1529 1532 1539 1540 1541 1541 1535 1532 1524 1525 1527 1525 1525 1528 1529 1524 1527 1508 1511
1484 1486 1486 1488 1490 1494 1498 1499 1504 1509 1511 1512 1513 1514 1517 1516 1522 1526 1527 1525 1523 1526 1528 1524 1526 1528 1530 1531 1534 1535 1536 1529 1531 1516 1526 1522 1516 1517 1516 1515 1512 1508 1506 1504
1474 1472 1476 1479 1481 1488 1491 1492 1494 1498 1506 1511 1514 1512 1511 1517 1523 1528 1528 1526 1525 1527 1529 1529 1529 1530 1532 1533 1535 1534 1533 1532 1533 1511 1522 1519 1513 1510 1511 1518 1519 1530 1515 1521
1462 1462 1466 1470 1474 1479 1482 1485 1491 1495 1500 1507 1509 1512 1516 1519 1522 1525 1528 1530 1528 1533 1531 1529 1529 1528 1528 1528 1528 1530 1529 1532 1532 1523 1524 1519 1503 1523 1523 1525 1529 1531 1529 1529
1455 1457 1461 1467 1470 1476 1479 1482 1488 1494 1501 1506 1509 1514 1516 1519 1523 1525 1529 1533 1532 1534 1533 1529 1522 1516 1519 1518 1524 1524 1526 1528 1528 1525 1515 1505 1517 1530 1533 1533 1524 1531 1531 1530
1446 1449 1457 1465 1468 1476 1479 1484 1489 1493 1500 1514 1513 1516 1517 1517 1521 1524 1528 1534 1533 1534 1531 1527 1526 1514 1513 1521 1526 1530 1532 1532 1531 1521 1519 1511 1523 1533 1535 1536 1522 1531 1531 1531
1446 1454 1460 1468 1472 1476 1480 1485 1489 1492 1505 1517 1516 1519 1520 1523 1525 1522 1528 1534 1533 1534 1527 1523 1517 1513 1518 1522 1520 1522 1525 1525 1526 1518 1510 1510 1534 1534 1535 1529 1526 1532 1531 1530
1454 1461 1466 1471 1475 1477 1482 1486 1490 1494 1506 1521 1522 1523 1525 1527 1529 1524 1534 1534 1534 1533 1530 1524 1518 1518 1521 1528 1535 1533 1532 1529 1521 1519 1521 1513 1536 1533 1531 1535 1533 1532 1529 1528
1459 1466 1470 1474 1478 1482 1485 1488 1493 1496 1502 1527 1529 1528 1529 1530 1533 1534 1534 1536 1536 1537 1532 1530 1528 1525 1529 1531 1529 1543 1539 1541 1538 1536 1525 1536 1536 1535 1535 1534 1532 1530 1528 1526
1463 1469 1473 1477 1481 1485 1488 1491 1497 1500 1513 1528 1533 1535 1535 1534 1534 1535 1537 1538 1539 1539 1538 1539 1536 1535 1539 1530 1525 1537 1545 1549 1545 1543 1535 1534 1534 1533 1532 1531 1530 1527 1525 1522
1469 1475 1477 1481 1485 1489 1493 1495 1500 1503 1513 1527 1541 1538 1537 1538 1537 1537 1538 1538 1539 1540 1541 1541 1540 1538 1546 1539 1545 1544 1546 1549 1544 1538 1532 1532 1529 1529 1529 1528 1526 1523 1521 1518
1474 1477 1482 1486 1489 1492 1495 1499 1504 1507 1512 1525 1539 1541 1542 1542 1541 1539 1538 1539 1541 1542 1543 1544 1546 1549 1549 1549 1549 1543 1547 1545 1541 1528 1536 1536 1531 1528 1526 1523 1520 1518 1515 1511
1478 1482 1486 1489 1493 1496 1499 1504 1511 1511 1514 1522 1537 1547 1546 1545 1545 1544 1542 1542 1543 1544 1547 1550 1552 1552 1553 1547 1541 1545 1545 1544 1542 1538 1534 1531 1526 1522 1520 1517 1514 1510 1507 1503
1484 1487 1490 1494 1497 1500 1502 1513 1517 1517 1518 1525 1539 1547 1550 1548 1548 1547 1547 1546 1546 1547 1550 1552 1553 1553 1553 1549 1543 1543 1541 1539 1536 1533 1530 1523 1520 1516 1514 1510 1505 1502 1497 1494
1489 1492 1495 1499 1501 1506 1511 1516 1519 1520 1521 1530 1543 1551 1552 1552 1552 1551 1550 1550 1550 1551 1552 1553 1552 1551 1550 1547 1541 1539 1537 1534 1530 1526 1523 1517 1513 1508 1503 1500 1496 1491 1487 1484
1496 1499 1502 1506 1508 1514 1520 1522 1524 1524 1529 1541 1555 1559 1557 1557 1557 1555 1554 1552 1550 1553 1553 1553 1553 1547 1544 1540 1538 1535 1532 1529 1523 1519 1515 1510 1505 1499 1495 1491 1488 1484 1479 1476
1502 1505 1507 1516 1521 1523 1525 1528 1529 1533 1542 1553 1565 1565 1563 1564 1559 1556 1555 1554 1554 1551 1556 1554 1551 1541 1537 1535 1532 1529 1526 1522 1517 1511 1504 1501 1496 1492 1487 1483 1479 1476 1471 1467
1507 1510 1517 1524 1526 1528 1530 1538 1545 1553 1561 1568 1570 1570 1568 1566 1564 1561 1562 1559 1557 1552 1556 1555 1546 1538 1530 1529 1526 1523 1519 1514 1508 1504 1497 1493 1488 1482 1478 1473 1471 1467 1463 1458
1510 1515 1522 1527 1530 1535 1542 1557 1563 1566 1573 1573 1572 1571 1570 1568 1566 1565 1564 1561 1560 1553 1561 1557 1543 1528 1526 1525 1521 1516 1512 1507 1501 1497 1491 1486 1481 1476 1470 1465 1460 1456 1452 1448
1517 1520 1528 1537 1546 1553 1562 1568 1571 1572 1577 1577 1575 1573 1571 1570 1568 1567 1567 1561 1558 1563 1558 1544 1531 1527 1525 1521 1516 1509 1505 1500 1494 1487 1482 1477 1471 1466 1462 1455 1450 1446 1441 1437
1522 1533 1548 1555 1567 1575 1579 1580 1581 1581 1579 1578 1576 1574 1573 1571 1570 1570 1565 1565 1566 1554 1549 1535 1527 1525 1521 1516 1510 1503 1495 1490 1484 1478 1472 1467 1461 1455 1450 1445 1440 1436 1430 1426
1534 1545 1567 1577 1583 1583 1583 1582 1582 1581 1580 1578 1577 1575 1576 1573 1571 1571 1567 1561 1552 1550 1537 1530 1526 1521 1515 1508 1501 1495 1489 1482 1476 1470 1463 1457 1451 1445 1438 1435 1430 1426 1420 1416
1550 1567 1580 1584 1584 1585 1584 1583 1582 1581 1579 1578 1578 1577 1573 1575 1577 1568 1566 1567 1553 1542 1538 1531 1524 1515 1509 1502 1496 1489 1482 1476 1469 1462 1456 1449 1443 1438 1431 1425 1421 1416 1412 1407
1573 1587 1587 1587 1588 1588 1586 1584 1583 1580 1581 1579 1578 1576 1578 1579 1571 1567 1569 1561 1550 1543 1533 1526 1520 1512 1503 1496 1489 1482 1475 1468 1461 1454 1448 1441 1435 1429 1423 1417 1411 1408 1404 1399